Regional Weather Roundup
Issued by NWS Upton, NY

Current Version | Previous Version | Graphics & Text | Print | Product List | Glossary Off
Versions: 1 2 3 4 5 6 7 8 9 10 11 12 13 14 15 16 17 18 19 20 21 22 23 24 25 26 27 28 29 30 31 32 33 34 35 36 37 38 39 40 41 42 43 44 45 46 47 48 49 50

000
ASUS41 KOKX 012304
RWROKX

REGIONAL WEATHER ROUNDUP
NATIONAL WEATHER SERVICE NEW YORK NY
700 PM EDT SAT AUG 01 2015

NOTE: "FAIR" INDICATES FEW OR NO CLOUDS BELOW 12,000 FEET WITH NO
SIGNIFICANT WEATHER AND/OR OBSTRUCTIONS TO VISIBILITY.

NYZ071-072-176-178-NJZ106-104-020000-
NEW YORK CITY METRO AREA


CITY           SKY/WX    TMP DP  RH WIND       PRES   REMARKS
CENTRAL PARK   MOSUNNY   85  56  37 VRB5      29.81R
LAGUARDIA APRT MOSUNNY   85  57  38 NW13G20   29.77S
KENNEDY INTL   MOSUNNY   88  53  30 W13G25    29.78R
NEWARK/LIBERTY MOSUNNY   87  56  34 W14G22    29.78R
BRNX BOT. GARD   N/A     84  55  37 W13       29.78S
TETERBORO      MOSUNNY   84  53  34 NW16      29.77R
$$

NYZ177-179-078>081-020000-
LONG ISLAND NEW YORK

CITY           SKY/WX    TMP DP  RH WIND       PRES   REMARKS
FARMINGDALE    MOSUNNY   86  57  37 N9        29.78R
ISLIP          MOSUNNY   85  58  39 NW12      29.76R
SHIRLEY        SUNNY     82  65  56 W6        29.77S
WESTHAMPTON    MOSUNNY   83  66  56 SW9       29.79R
MONTAUK POINT    N/A     81  68  64 SW6       29.78R
$$

NYZ052-065-067-020000-
HUDSON VALLEY

CITY           SKY/WX    TMP DP  RH WIND       PRES   REMARKS
WHITE PLAINS   MOSUNNY   81  58  45 W6        29.79S
NEWBURGH       MOSUNNY   82  57  42 W14       29.80S
MONTGOMERY     SUNNY     82  56  40 W8        29.79S
POUGHKEEPSIE   MOSUNNY   85  52  32 W12       29.77R
ALBANY         MOSUNNY   80  55  42 NW9       29.78R
$$

NJZ001-105-106-008-010-013-015-019>022-104-020000-
NEW JERSEY

CITY           SKY/WX    TMP DP  RH WIND       PRES   REMARKS
NEWARK/LIBERTY MOSUNNY   87  56  34 W14G22    29.78R
TETERBORO      MOSUNNY   84  53  34 NW16      29.77R
CALDWELL       SUNNY     84  55  36 NW8       29.80R
MORRISTOWN     MOSUNNY   86  59  39 NW8       29.80S
SOMERVILLE     PTSUNNY   85  56  37 VRB6      29.78S
SUSSEX         MOSUNNY   79  57  46 CALM      29.82R
ANDOVER          N/A     78  63  59 CALM      29.83R
TRENTON        MOSUNNY   85  54  34 NW9G18    29.80S
MILLVILLE      SUNNY     86  61  42 W6        29.82S
ATLANTIC CITY  SUNNY     86  59  39 W10       29.82R
WRIGHTSTOWN    NOT AVBL
TOMS RIVER       N/A     86  59  39 W10       29.80S
BELMAR         MOSUNNY   84  59  42 W7        29.80S
$$

PAZ047>061-062-071-020000-
EASTERN PENNSYLVANIA

CITY           SKY/WX    TMP DP  RH WIND       PRES   REMARKS
PHILADELPHIA   MOSUNNY   88  54  31 W16       29.82S
ALLENTOWN      MOSUNNY   82  58  43 W12       29.82S
SCRANTON       LGT RAIN  74  61  63 VRB3      29.85R
$$

CTZ002-004>006-009-010-012-RIZ004-006-007-MAZ004-011-015-020000-
SOUTHERN NEW ENGLAND
 IN CT

CITY           SKY/WX    TMP DP  RH WIND       PRES   REMARKS
BRADLEY INTL   MOSUNNY   82  62  50 NW6       29.75S
HARTFORD       MOSUNNY   83  61  47 SW3       29.75S
DANBURY        MOSUNNY   77  62  59 SW5       29.80S
WTRBRY/OXFORD  MOSUNNY   79  61  53 W5        29.82R
BRIDGEPORT     SUNNY     85  59  41 W12       29.76S
MERIDEN        PTSUNNY   78  68  71 CALM      29.76S
NEW HAVEN      MOSUNNY   82  61  48 VRB5      29.76S
CHESTER        FAIR      79  64  61 CALM      29.79R
GROTON         MOSUNNY   82  61  48 N9        29.75S
WILLIMANTIC    MOSUNNY   82  59  45 NW3       29.76S

 IN RI

CITY           SKY/WX    TMP DP  RH WIND       PRES   REMARKS
PROVIDENCE     PTSUNNY   79  61  53 W6        29.76S
BLOCK ISLAND     N/A     75  70  83 SW13      29.78R
WESTERLY       MOSUNNY   82  61  48 VRB3      29.77R

 IN MA

CITY           SKY/WX    TMP DP  RH WIND       PRES   REMARKS
BOSTON         MOSUNNY   80  60  50 W12       29.73R
WORCESTER      SUNNY     76  60  57 W7        29.79R
WESTFIELD      MOSUNNY   82  59  45 W7        29.76R
PROVINCETOWN   MOCLDY    72  64  78 SW5       29.75S
NANTUCKET      CLEAR     75  70  84 SW12      29.77R
$$

ANZ330-335-338-340-345-350-353-355-020000-
COASTAL MARINE OBSERVATIONS


STATION/POSITION TIME  SKY/WX   TEMP    WIND        PRES    VSBY  WAVE
                                AIR SEA DIR/SP/G                  HT/PER
                 (UTC)          (F)     (DEG/KT/KT) (MB)    (MI)  (FT/S)
NY HARB ENTRANCE 2150            81 77  240/ 10/ 12 1008.0          3/ 9
4S FIRE IS       NOT AVBL
20S FIRE ISLAND  2150            78 76  220/ 12/ 14 1008.1          4/ 9
GREAT SOUTH BAY  2230            81 81  240/ 14/ 16   N/A
23SW MTP         2250            77 74  220/ 17/ 19 1007.6          5/ 9
HUDSON CANYON    NOT AVBL
KINGS POINT      2200            81 73   10/  9/ 13 1007.4
EXECUTION ROCKS  2200            82     280/  8/ 10   N/A
CENTRAL LI SOUND NOT AVBL
EASTERN LI SOUND 2200            75 69  270/ 10/ 12   N/A
ROBBINS REEF     2200            85     310/ 16/ 19 1007.0
$$


>>>>>>>>>>>>>>>>>>>>>>>>>>>> KEY <<<<<<<<<<<<<<<<<<<<<<<<<<<
>                                                          <
>     SKY/WX - SKY CONDITION/PRESENT WEATHER               <
>     TMP    - TEMPERATURE IN FAHRENHEIT                   <
>     DP     - DEWPOINT IN FAHRENHEIT                      <
>     RH     - RELATIVE HUMIDITY IN PERCENT                <
>     WIND   - DIRECTION AND SPEED IN MPH                  <
>     PRES   - MEAN SEA LEVEL PRESSURE IN INCHES OF HG     <
>     WCI    - WIND CHILL INDEX                            <
>     VSB    - VISIBILITY IN MILES                         <
>     HX     - HEAT INDEX                                  <
>     TC     - TEMPERATURE IN CELSIUS                      <
>     VRB    - VARIABLE WIND DIRECTION                     <
>                                                          <
>>>>>>>>>>>>>>>>>>>>>>>>>>>> KEY <<<<<<<<<<<<<<<<<<<<<<<<<<<




USA.gov is the U.S. government's official web portal to all federal, state and local government web resources and services.